Ellensburg, WA
on Monday, November 5, 2012

Monday
Previous Day Next Day
Daily Summary
 ActualAverage (KYKM)Record (KYKM)
Temperature
Mean Temperature °F 41°F  
Max Temperature 62°F 54°F 69°F (1949)
Min Temperature 39°F 29°F 13°F (2003)
Degree Days
Heating Degree Days 14 24  
Month to date heating degree days 115  
Since 1 July heating degree days 819  
Cooling Degree Days 0 0  
Month to date cooling degree days 0  
Year to date cooling degree days 472  
Growing Degree Days2 (Base °F )  
Moisture
Dew Point 40°F   
Average Humidity 66    
Maximum Humidity 87    
Minimum Humidity 44    
Precipitation
Precipitation 0.00 in 0.03 in 0.58 in (2005)
Month to date precipitation 0.14  
Year to date precipitation 5.81  
Snow
Snow 0.00 in 0.10 in 0.60 in (1973)
Month to date snowfall 0.1  
Year to date snowfall 8.8  
Since 1 July snowfall 0.2  
Snow Depth in   
Wind
Wind Speed 8 mph   
Max Wind Speed 24 mph   
Max Gust Speed 31 mph   
Visibility 9 miles   
Events     

Key: T is trace of precipitation, MM is missing value
Source: NWS Daily Summary
Time(PST)TemperatureDew PointHumidity Pressure Visibility Wind DirectionWind SpeedGust SpeedPrecipitationEvents Conditions
12:53 AM 48.9°F 44.1°F 83% 30.25 in 10.0 miles West 3.5 mph - 0.00 in   Scattered Clouds
1:53 AM 46.9°F 43.0°F 86% 30.24 in 9.0 miles Calm Calm - N/A   Mostly Cloudy
2:53 AM 48.0°F 44.1°F 86% 30.23 in 10.0 miles ENE 4.6 mph - N/A   Scattered Clouds
3:53 AM 48.0°F 44.1°F 86% 30.21 in 8.0 miles Calm Calm - N/A   Overcast
4:13 AM 46.4°F 42.8°F 87% 30.20 in 7.0 miles Calm Calm - N/A   Overcast
4:27 AM 46.4°F 42.8°F 87% 30.21 in 3.0 miles Calm Calm - N/A   Mostly Cloudy
4:53 AM 55.0°F 48.9°F 80% 30.21 in 10.0 miles West 4.6 mph - N/A   Mostly Cloudy
5:53 AM 57.0°F 46.9°F 69% 30.21 in 10.0 miles NW 20.7 mph 31.1 mph N/A   Clear
6:53 AM 55.9°F 45.0°F 67% 30.22 in 10.0 miles NNW 24.2 mph 31.1 mph N/A   Clear
7:53 AM 55.9°F 45.0°F 67% 30.25 in 10.0 miles NW 18.4 mph - N/A   Clear
8:53 AM 57.9°F 44.1°F 60% 30.28 in 10.0 miles NW 17.3 mph 23.0 mph N/A   Clear
9:53 AM 60.1°F 43.0°F 53% 30.30 in 10.0 miles WNW 15.0 mph - N/A   Clear
10:53 AM 57.9°F 39.9°F 51% 30.30 in 10.0 miles WNW 20.7 mph 27.6 mph N/A   Clear
11:53 AM 61.0°F 39.9°F 46% 30.27 in 10.0 miles NW 18.4 mph 26.5 mph N/A   Clear
12:53 PM 62.1°F 39.9°F 44% 30.27 in 10.0 miles WNW 19.6 mph 26.5 mph N/A   Clear
1:53 PM 60.1°F 39.0°F 46% 30.26 in 10.0 miles WNW 13.8 mph - N/A   Clear
2:53 PM 60.1°F 37.9°F 44% 30.26 in 10.0 miles WNW 13.8 mph - N/A   Clear
3:53 PM 57.9°F 37.9°F 47% 30.25 in 10.0 miles West 10.4 mph - N/A   Clear
4:35 PM 57.2°F 37.4°F 48% 30.24 in 2.0 miles NW 12.7 mph - N/A   Haze
4:45 PM 55.4°F 37.4°F 51% 30.24 in 10.0 miles NW 8.1 mph - N/A   Clear
4:53 PM 54.0°F 37.9°F 55% 30.24 in 10.0 miles NNW 8.1 mph - N/A   Clear
5:53 PM 52.0°F 37.0°F 57% 30.23 in 10.0 miles NW 8.1 mph - N/A   Clear
6:53 PM 48.9°F 37.0°F 64% 30.23 in 10.0 miles North 5.8 mph - N/A   Clear
7:53 PM 44.1°F 35.1°F 71% 30.22 in 10.0 miles ENE 3.5 mph - N/A   Clear
8:53 PM 42.1°F 34.0°F 73% 30.22 in 10.0 miles NE 4.6 mph - N/A   Clear
9:53 PM 41.0°F 34.0°F 76% 30.21 in 10.0 miles ENE 4.6 mph - N/A   Clear
10:53 PM 41.0°F 33.1°F 73% 30.21 in 10.0 miles Calm Calm - N/A   Clear
11:53 PM 39.9°F 33.1°F 77% 30.20 in 10.0 miles Calm Calm - N/A   Clear
Moon Phase
Nov. 05 Nov. 06 Nov. 13 Nov. 20 Nov. 28
Sunrise:06:51 AM (PST) Moon Rise:10:22 PM (PST)11/5
Sunset:04:39 PM (PST) Moon Set:12:14 PM (PST)11/5

Copyright © 2014 The Weather Underground, Inc.